EHI
1 2 3 1 0 0 0 1 2 2 1 0 0 0 0 0 0 1 0 0 0 0 0 0 0 0 0 0 0 0 0 0 0 0 0 0 0 0 0 0 0 0 0
1 2 3 2 1 0 0 0 1 1 0 0 0 0 0 0 0 1 0 0 0 0 0 0 0 0 0 0 0 0 0 0 0 0 0 0 0 0 0 0 0 0 0
1 2 3 2 1 0 0 0 0 0 0 0 0 0 0 0 0 0 0 0 0 0 0 0 0 0 0 0 0 0 0 0 0 0 0 0 0 0 0 0 0 0 0
1 2 2 2 1 0 0 0 0 0 0 0 0 0 0 0 0 0 0 0 0 0 0 0 0 0 0 0 0 0 0 0 0 0 0 0 0 0 0 0 0 0 0
0 1 2 2 1 0 0 0 0 0 0 0 0 1 1 0 0 0 0 0 0 0 0 0 0 0 0 0 0 0 0 0 0 0 0 0 0 0 0 0 0 0 0
0 1 2 3 2 1 0 0 0 0 0 0 1 2 2 1 0 0 0 0 0 0 0 0 0 0 0 0 0 0 0 0 0 0 0 0 0 1 1 1 0 0 1
0 0 1 3 3 1 0 0 0 0 0 1 2 3 2 1 0 0 0 0 0 0 0 0 0 0 0 0 0 0 0 0 0 0 0 0 0 1 2 1 0 0 1
0 0 1 2 2 1 0 0 0 0 1 2 3 2 1 0 0 0 0 0 0 0 0 0 0 0 0 0 0 1 0 0 0 0 0 0 0 1 1 1 0 0 1
0 0 0 1 1 1 0 0 0 1 2 2 2 1 0 0 0 0 0 0 0 0 0 0 0 1 1 0 0 1 1 0 0 0 0 0 0 0 0 0 0 0 0
0 0 0 0 0 0 0 0 0 1 2 1 1 0 0 0 0 0 0 0 0 0 0 0 0 1 1 0 0 1 2 1 0 0 0 0 0 0 0 0 0 0 0
0 0 0 0 0 0 0 0 0 1 1 0 0 0 0 0 0 0 0 0 0 0 0 0 0 1 1 0 0 1 1 1 0 0 0 0 0 0 0 0 0 0 0
0 0 0 0 0 0 0 0 0 0 0 0 0 0 0 0 0 0 0 0 0 0 0 0 0 0 0 0 0 0 0 0 0 0 0 0 0 0 0 0 0 0 0
0 0 0 0 0 0 0 0 1 0 0 0 0 0 0 0 0 0 0 0 0 0 0 0 0 0 0 0 0 0 0 0 0 0 0 0 1 1 0 0 0 0 0
0 0 0 0 0 0 0 0 0 0 0 0 0 0 0 0 0 0 0 0 0 0 0 0 0 0 0 0 0 0 0 0 0 0 0 0 1 2 1 0 1 0 0
0 0 0 0 0 0 0 0 0 0 0 0 0 0 0 0 0 0 0 0 1 0 0 0 0 0 0 0 0 0 0 0 0 0 0 0 1 1 1 0 0 0 0
0 0 0 1 1 0 0 0 0 0 0 0 0 0 0 0 0 0 0 0 0 0 0 0 0 0 0 0 0 0 0 0 0 0 0 0 0 0 0 0 0 0 0
0 0 1 2 2 1 0 0 0 0 0 0 0 0 0 0 0 0 0 0 0 0 0 0 0 0 0 0 0 0 0 0 0 0 0 0 0 0 0 0 0 0 1
0 0 1 2 3 2 1 1 0 0 0 0 0 0 0 0 0 0 0 0 0 0 0 0 0 0 0 0 0 0 0 0 0 0 0 0 0 0 0 0 0 0 1
0 0 1 1 2 3 3 2 1 0 0 0 0 0 0 0 0 0 0 0 0 0 0 0 0 0 0 0 0 0 0 0 0 0 0 0 0 0 0 0 0 0 1
0 0 0 0 1 3 3 3 2 1 1 0 0 0 0 0 0 0 0 0 0 0 0 0 0 0 0 0 0 0 0 0 0 0 0 0 0 0 0 0 0 0 0
0 0 0 0 1 2 3 3 3 3 2 1 0 0 0 0 0 0 0 0 0 0 0 0 0 0 0 0 0 0 0 0 0 0 0 1 1 1 1 0 1 1 0
1 1 1 1 1 1 2 3 3 3 3 2 1 0 0 0 0 0 0 0 0 0 0 0 0 0 0 0 0 0 0 0 0 0 0 0 1 1 2 2 2 1 1
2 2 2 2 1 1 2 4 4 3 3 3 1 1 0 0 0 0 0 0 0 0 0 0 0 0 0 0 0 0 0 0 0 0 0 0 0 1 2 2 2 1 0
3 3 2 1 1 1 3 5 5 3 3 3 3 2 1 0 0 0 0 0 0 0 0 0 0 0 0 0 0 0 0 0 0 0 0 0 0 0 1 1 1 0 0
3 3 2 1 1 2 5 7 6 4 4 4 3 3 2 1 0 0 0 0 0 0 0 0 0 0 0 0 0 0 0 0 0 0 0 0 0 0 0 0 0 0 0
3 3 3 2 2 3 6 8 7 6 5 5 4 3 3 2 1 0 0 0 0 0 0 0 0 0 0 0 0 0 0 0 0 0 0 0 0 0 0 0 0 0 0
Wind_Speed
2 4 5 4 5 6 7 7 8 8 9 9 9 9 9 9 9 8 8 8 9 9 10 10 9 10 10 10 10 9 10 10 9 8 8 8 8 7 7 5 5 5 7
3 4 6 5 5 6 7 8 8 9 9 10 10 10 10 9 9 9 8 8 9 9 10 10 9 10 10 10 10 10 10 9 9 9 8 8 7 6 6 4 3 4 6
4 5 6 6 6 7 8 8 9 9 9 10 10 10 10 9 9 8 9 9 9 9 9 9 9 9 9 9 9 9 9 9 8 6 4 5 7 7 5 5 5 6 6
5 5 7 7 7 8 8 9 9 9 9 9 10 10 9 9 9 9 9 9 9 9 9 9 9 9 9 9 9 9 9 8 6 2 3 5 6 8 6 6 6 6 6
6 6 8 7 8 8 9 9 10 10 10 10 10 10 9 9 9 9 9 9 9 9 9 9 9 9 9 9 9 9 8 7 4 3 5 5 6 8 7 6 6 6 7
6 6 9 8 9 9 9 10 10 10 10 10 10 10 10 9 10 9 9 8 8 8 9 9 9 9 9 9 9 8 7 4 2 5 5 5 6 8 7 7 6 6 6
6 7 9 8 8 9 9 10 10 10 10 10 10 10 10 10 10 9 9 9 8 8 8 9 8 8 8 9 9 8 6 3 4 5 5 5 7 8 7 7 6 6 6
6 7 8 9 8 9 9 9 10 10 9 10 10 10 10 10 10 10 10 9 9 8 8 8 8 8 9 9 9 8 6 3 5 5 5 6 8 7 7 7 6 6 6
6 6 6 7 8 8 9 9 9 9 9 9 9 9 10 10 10 10 10 10 10 9 9 8 8 8 8 9 8 8 6 4 3 4 5 5 8 7 7 7 6 5 6
6 5 5 5 5 6 7 9 9 9 9 9 9 8 8 8 9 9 9 10 10 10 10 9 9 8 8 8 8 7 4 1 4 4 4 7 8 7 6 6 6 6 6
5 4 4 5 5 5 6 7 7 7 7 6 7 6 3 5 6 7 11 10 10 10 10 9 9 8 7 8 8 5 1 3 5 4 5 9 7 6 6 6 6 6 6
5 4 4 4 4 4 4 4 3 4 4 4 4 4 4 5 5 6 10 9 9 8 9 8 6 5 2 4 5 2 2 4 4 4 6 8 7 6 6 6 7 6 6
5 4 3 4 4 4 3 3 2 3 3 3 4 5 3 4 3 3 3 5 5 4 5 5 3 3 4 4 3 3 4 3 3 4 6 8 7 7 7 7 7 7 6
5 4 4 3 3 3 3 3 2 2 2 2 3 4 3 2 3 3 2 3 3 3 3 3 3 4 4 4 4 4 5 3 3 3 6 10 8 8 7 7 6 6 6
5 5 4 4 3 3 3 2 2 2 2 3 2 2 3 2 3 3 2 3 3 3 3 3 3 4 4 5 4 4 4 5 4 4 4 9 9 9 8 7 6 6 6
6 5 5 4 3 3 3 3 2 2 2 2 2 2 2 2 2 2 3 3 3 3 3 3 4 3 4 4 4 4 4 4 4 4 3 6 9 9 9 8 7 6 5
6 5 5 4 4 3 3 3 2 2 2 2 1 2 2 2 2 2 2 2 2 2 3 3 4 3 3 3 4 4 4 4 3 3 3 3 4 7 8 9 8 7 5
5 5 5 4 4 3 3 3 2 2 2 2 2 1 2 2 2 2 2 2 2 2 2 2 2 3 3 3 3 3 3 2 3 3 3 3 2 3 5 8 8 7 6
5 5 5 5 4 4 3 3 2 2 2 1 1 1 1 2 2 2 2 2 2 2 2 2 2 2 3 3 2 2 2 3 3 2 3 3 3 2 2 6 7 7 7
5 5 5 5 4 4 3 3 3 2 2 1 1 1 1 1 1 2 1 2 2 2 2 2 3 2 2 2 2 2 2 2 2 3 3 3 3 3 3 2 2 5 7
6 5 6 6 5 4 3 3 3 3 2 2 1 2 1 1 1 2 1 1 1 2 2 2 2 2 2 1 1 1 2 2 3 2 2 2 3 3 3 3 2 2 3
6 6 5 5 6 5 4 3 3 2 2 2 1 1 1 1 1 1 1 1 2 2 2 2 2 1 1 0 1 1 1 2 1 2 1 1 2 2 2 2 2 2 2
6 6 5 5 6 6 5 3 3 3 2 3 2 2 1 2 2 1 1 1 1 2 2 2 2 2 1 1 1 2 2 1 1 1 1 1 1 1 1 2 2 2 2
6 5 5 5 5 6 6 5 5 4 3 3 2 2 2 2 2 1 1 1 1 1 2 2 2 2 2 1 0 1 3 2 2 1 1 1 0 1 1 1 1 2 2
6 5 5 5 4 4 5 5 5 5 3 3 3 3 3 2 2 2 1 1 1 1 1 2 2 2 2 1 1 1 1 1 3 2 1 1 1 0 1 1 1 1 1
5 5 5 5 5 4 5 6 6 6 5 4 4 3 3 2 2 3 2 2 1 1 2 2 2 2 2 2 2 1 1 1 2 2 2 2 1 0 0 0 1 0 0
Wind_Direction
73 67 57 48 60 67 70 72 80 80 81 89 90 91 93 94 92 91 89 85 86 90 88 87 85 85 86 86 87 88 90 93 95 99 109 114 113 117 125 136 153 130 118
85 80 74 62 70 74 76 75 79 81 81 84 87 88 90 91 90 87 88 86 86 90 89 87 86 84 83 84 86 86 86 86 87 89 103 114 111 109 116 125 119 109 125
91 85 97 79 75 74 75 77 80 82 83 85 86 86 87 88 89 91 89 88 87 86 86 85 84 83 83 83 85 86 84 83 85 95 122 114 108 103 106 105 103 119 124
91 80 78 82 80 78 76 74 77 78 81 84 87 86 87 88 88 90 90 88 87 86 85 83 82 83 84 83 85 86 83 81 83 109 110 97 104 102 101 95 99 106 111
93 83 82 80 83 80 78 75 75 75 78 82 85 85 86 86 89 89 89 89 87 86 86 85 81 80 82 82 83 85 84 83 90 88 78 83 89 94 93 92 96 101 105
99 89 85 77 81 82 81 79 78 76 78 80 82 83 83 81 81 83 86 89 89 87 86 86 84 80 81 81 80 78 79 76 112 81 78 81 87 91 89 93 92 96 100
101 92 92 84 83 83 82 82 80 78 78 78 78 79 79 80 81 81 83 84 86 87 86 84 83 81 81 82 80 76 71 47 71 81 80 78 79 86 88 88 90 93 94
103 98 100 95 84 81 82 80 80 81 80 79 77 76 75 76 79 80 81 80 82 86 88 86 84 85 85 84 82 77 63 16 83 80 80 78 73 78 80 81 82 86 92
104 101 100 106 104 94 83 78 78 77 77 77 77 76 75 76 76 77 78 77 78 81 84 85 84 86 87 85 83 78 70 26 58 72 78 75 76 73 76 79 79 79 87
111 106 103 103 98 101 100 84 78 75 75 76 76 77 83 92 88 82 86 79 78 79 79 78 80 84 87 85 82 80 77 78 61 68 67 77 76 74 77 80 80 79 81
114 110 107 104 98 92 90 94 96 87 79 89 90 87 102 93 92 91 72 75 77 78 78 76 75 78 95 97 85 81 109 65 68 56 58 68 72 74 77 79 79 78 81
132 121 112 106 108 103 95 100 93 92 90 79 79 82 78 78 73 76 87 79 83 87 91 81 82 103 110 96 102 130 76 71 67 67 67 61 64 72 76 78 77 77 82
140 135 125 119 112 108 106 98 92 87 81 76 76 76 75 82 93 88 97 110 107 112 97 106 122 78 69 66 62 69 55 49 54 62 66 59 59 70 75 75 75 75 78
145 142 141 137 123 118 113 104 107 102 92 80 77 74 75 76 76 77 80 75 77 80 78 76 70 74 70 68 64 63 69 60 55 61 63 58 55 62 72 77 78 76 72
154 154 150 152 141 131 113 115 118 104 98 94 82 83 80 80 82 83 77 71 70 73 83 79 75 71 66 60 56 55 60 64 63 64 72 64 52 52 59 67 70 75 73
163 158 153 156 149 148 141 141 120 114 113 89 87 82 81 81 78 74 73 68 64 70 70 83 86 77 68 65 62 60 56 61 63 70 67 75 64 53 52 57 61 64 69
169 164 156 158 157 157 145 131 124 126 126 114 105 88 86 85 89 81 68 69 66 76 85 81 84 77 77 76 71 62 56 47 53 62 62 54 73 71 56 50 51 52 58
175 169 161 169 171 154 146 147 142 139 132 125 118 96 95 99 90 79 78 76 74 77 77 87 85 87 84 70 65 63 69 67 59 56 64 71 56 61 74 58 50 47 50
183 176 172 176 173 159 153 152 152 148 143 135 122 109 101 91 94 98 85 89 91 84 77 82 88 86 86 76 66 60 54 59 56 54 57 51 56 56 70 84 67 53 50
188 185 179 173 177 162 165 170 157 155 150 141 127 122 104 100 95 94 109 107 98 95 92 97 103 94 82 83 75 65 59 66 68 51 46 48 37 38 36 51 81 83 69
187 191 184 182 177 171 172 181 180 173 170 159 155 150 142 131 104 102 127 107 99 94 96 109 112 117 107 96 110 109 101 71 61 71 47 33 46 40 28 38 36 44 93
190 191 191 192 184 182 183 184 185 182 176 145 144 158 162 152 137 130 145 134 125 118 129 121 131 138 119 241 294 272 197 161 115 70 69 42 36 46 22 24 44 51 26
193 190 192 194 191 186 183 181 170 164 172 164 168 164 168 158 154 159 155 145 153 165 152 167 174 183 203 217 305 306 297 353 87 132 53 47 34 14 4 13 18 40 47
196 192 191 188 190 185 182 187 186 191 190 188 179 163 166 159 152 164 169 171 163 163 175 192 189 209 220 220 144 317 324 345 295 207 169 97 25 340 351 2 356 23 49
193 189 192 187 188 190 189 190 203 202 201 184 174 164 172 160 162 162 176 189 183 183 196 202 203 220 217 246 239 227 271 278 276 289 272 232 203 252 348 331 310 351 33
188 184 186 187 182 187 196 195 206 202 199 188 188 181 188 175 178 172 176 187 197 198 199 205 212 215 235 237 242 233 238 254 272 271 266 250 245 188 188 289 274 297 339